Regional Weather Roundup
Issued by NWS

Home | Current Version | Previous Version | Graphics & Text | Print | Product List | Glossary On
Versions: 1 2 3 4 5 6 7 8 9 10 11 12 13 14 15 16 17 18 19 20 21 22 23 24 25 26 27 28 29 30 31 32 33 34 35 36 37 38 39 40 41 42 43 44 45 46 47 48 49 50
000
ASUS43 KDTX 032101
RWRMI
MICHIGAN HOURLY REGIONAL WEATHER ROUNDUP
NATIONAL WEATHER SERVICE DETROIT/PONTIAC MI
500 PM EDT SUN MAY 03 2015

NOTE: "FAIR" INDICATES FEW OR NO CLOUDS BELOW 12,000 FEET WITH NO
SIGNIFICANT WEATHER AND/OR OBSTRUCTION TO VISIBILITY.

MIZ047>049-052>055-059>063-066>070-074>076-081>083-032200-
SOUTHEAST LOWER MICHIGAN

CITY           SKY/WX    TMP DP  RH WIND       PRES   REMARKS
ADRIAN         MOSUNNY   79  43  27 W16G24    30.01S
ALMA           PTSUNNY   79  43  27 SW13G21   29.95S
ANN ARBOR      MOSUNNY   78  44  29 SW12      30.00F
BAD AXE        PTSUNNY   77  37  24 SW13      29.95F
CARO           PTSUNNY   78  44  29 CALM      29.95S
DETROIT CITY   MOSUNNY   77  42  28 S16       29.99F
DETROIT        PTSUNNY   80  43  26 S16       30.00F
FLINT          PTSUNNY   80  42  25 SW15G24   29.97F
GROSSE ILE     MOSUNNY   70  46  43 S9G16     29.99F HAZE
HILLSDALE      MOSUNNY   78  43  28 S14G20    30.00F
HOWELL         MOSUNNY   79  40  25 SW14      29.98S

CITY           SKY/WX    TMP DP  RH WIND       PRES   REMARKS
JACKSON        PTSUNNY   76  45  33 SW14G23   29.99F
LAMBERTVILLE   SUNNY     79  43  27 SW14      30.00F
LANSING        PTSUNNY   79  45  29 SW14G20   29.97F
LAPEER         PTSUNNY   77  38  24 SW12G23   29.97F
MASON          PTSUNNY   77  42  28 SW10G17   29.98S
PONTIAC        PTSUNNY   76  41  28 S9        29.98F
PORT HOPE        N/A     79  40  24 SW12G17   29.93F
PORT HURON     MOSUNNY   77  46  33 S12       29.99F
TRI CITIES     PTSUNNY   80  43  26 SW15G22   29.94F
MIDLAND        FAIR      80  42  25 SW16      29.92F
TROY           MOSUNNY   80  39  23 W12G17    30.00F
SAGINAW HB     PTSUNNY   81  37  21 SW12G22   29.94F
$$
MIZ043>046-050>051-056>058-064>065-071>073-077>080-032200-
SOUTHWEST LOWER MICHIGAN

CITY           SKY/WX    TMP DP  RH WIND       PRES   REMARKS
BATTLE CREEK   CLOUDY    76  45  33 SW13      29.98F
BENTON HARBOR  MOSUNNY   77  47  34 SW12      29.94F
BIG RAPIDS     PTSUNNY   76  40  28 SW10G25   29.93S
COLDWATER      CLOUDY    74  43  32 SW14G23   29.99F
FREMONT        PTSUNNY   73  38  27 SW15G25   29.94F
HOLLAND        CLOUDY    76  47  35 SW13      29.96F
GRAND RAPIDS   CLOUDY    77  45  32 SW14      29.96S
IONIA          PTSUNNY   79  44  29 W16       29.95S
KALAMAZOO      CLOUDY    79  46  31 SW13      29.97F
LUDINGTON      PTSUNNY   73  45  35 S16G23    29.91F
MARSHALL       CLOUDY    76  46  34 SW10G20   29.98F
MOUNT PLEASANT PTSUNNY   78  42  26 SW16G24   29.93F
MUSKEGON       CLOUDY    73  42  32 S13       29.94F
SOUTH HAVEN    PTSUNNY   79  38  23 W10G17    29.95F
$$
MIZ016>042-032200-
NORTHERN LOWER MICHIGAN

CITY           SKY/WX    TMP DP  RH WIND       PRES   REMARKS
ALPENA         PTSUNNY   81  44  27 SW15G25   29.88F
BEAVER ISLAND  PTSUNNY   72  39  30 SW17G28   29.86S
BELLAIRE       MOSUNNY   80  43  26 SW12G21   29.87S
CADILLAC       MOSUNNY   77  45  32 SW15G24   29.91F
CHARLEVOIX     SUNNY     78  46  31 S15G23    29.89F
FRANKFORT      MOSUNNY   71  38  29 SW18G28   29.88F
GAYLORD        PTSUNNY   76  44  32 SW15G23   29.90F
GRAYLING       PTSUNNY   76  44  31 SW13      29.92S
HARBOR SPRINGS MOSUNNY   70  46  41 W8        29.87F
HOUGHTON LAKE  PTSUNNY   75  45  34 SW10      29.92F
MANISTEE       MOSUNNY   73  45  35 S13G22    29.91S
OSCODA         PTSUNNY   77  43  29 S9        29.91F
PELLSTON       MOSUNNY   79  47  32 SW18G24   29.86F
ROGERS CITY    PTSUNNY   69  48  46 E7        29.90S
TRAVERSE CITY  PTSUNNY   81  45  28 SW13G22   29.86F
$$
MIZ007>008-015-032200-
EASTERN UPPER MICHIGAN

CITY           SKY/WX    TMP DP  RH WIND       PRES   REMARKS
KINROSS        MOSUNNY   73  45  35 W10G23    29.86F
MACKINAC ISLAN MOSUNNY   69  44  40 W12       29.86F
NEWBERRY       PTSUNNY   70  44  39 SW25G35   29.83F
S. S. MARIE    MOSUNNY   75  48  38 SW20G26   29.84F
MUNISING         N/A     78  50  37 S13G22    29.76F
$$
MIZ004>006-011>014-085-032200-
CENTRAL UPPER MICHIGAN

CITY           SKY/WX    TMP DP  RH WIND       PRES   REMARKS
MANISTIQUE     SUNNY     50  38  63 S12G18    29.84F
ESCANABA       SUNNY     64  45  48 S12G22    29.78F
MENOMINEE      MOSUNNY   79  52  38 S20G29    29.78F
SAWYER-GWINN   PTSUNNY   77  48  36 S16       29.74F
$$
MIZ001>003-009>011-084-032200-
WESTERN UPPER MICHIGAN

CITY           SKY/WX    TMP DP  RH WIND       PRES   REMARKS
IRON MOUNTAIN  MOSUNNY   81  48  31 SW17G24   29.73F
HOUGHTON       PTSUNNY   72  50  45 W15       29.74S
COPPER HARBOR    N/A     53  43  68 N9        29.73F
IRONWOOD       CLOUDY    75  52  43 NW14G20   29.73S
$$

ABBREVIATIONS USED IN REMARKS
   TC - TEMPERATURE IN CELSIUS
  WCI - WIND CHILL INDEX
   HX - HEAT INDEX
  VSB - VISIBILITY




USA.gov is the U.S. government's official web portal to all federal, state and local government web resources and services.